Location: Shepherdstown, WV
(39.4326°N, 77.8042°W)
Time: 04:42:19
(UTC-04:00)

Vanguard 1 - Pass Details

Date: 04 August 2021
Orbit: 652 x 3831 km, 34.3° (Epoch: 24 September)

Event Time Altitude Azimuth Distance (km) Brightness Sun altitude
Rises 12:14:49 0° 256° (WSW) 2,988 12.5 63.8°
Reaches altitude 10° 12:16:54 10° 250° (WSW) 2,155 11.9 64.0°
Maximum altitude 12:21:31 52° 174° (S) 1,049 12.0 64.5°
Drops below altitude 10° 12:28:29 10° 100° (E) 3,216 13.1 65.2°
Sets 12:32:16 0° 96° (E) 4,651 13.7 65.6°
